Location: *
(37.9248°S, 156.9822°W)
Time: 02:45:24
(UTC+00:00)

Daily predictions for brighter satellites

Satellite Brightness Start Highest point End
(mag) Time Altitude Azimuth Time Altitude Azimuth Time Altitude Azimuth
Cosmos 2058 2.8 05:45:09 10° N 05:49:07 62° E 05:53:08 10° SSE
YAOGAN 1 2.5 05:45:38 10° SSE 05:49:59 81° ENE 05:54:17 10° N
Cosmos 2142 Rocket 4.5 05:45:43 10° S 05:51:57 75° E 05:58:08 10° NNE
Lacrosse 5 rocket 1.6 05:48:55 10° SSW 05:52:42 50° SE 05:56:28 10° ENE
Resurs 1-3 3.6 05:48:45 10° SSE 05:53:09 83° ENE 05:57:29 10° N
Cosmos 1862 3.4 05:50:52 10° NNE 05:54:25 48° E 05:58:02 10° SSE
BREEZE-M TANK 4.3 05:51:54 10° N 05:54:38 16° NE 05:57:04 10° E
SJ-6B 3.6 05:52:00 10° SE 05:55:06 26° E 05:58:07 10° NNE
Resurs 01 Rocket 2.3 05:51:03 10° SSE 05:55:06 33° E 05:59:06 10° NNE
NOAA 6 4.1 05:51:08 10° SSE 05:56:17 57° E 06:01:22 10° N
BREEZE-M DEB 2.4 05:55:35 10° NNW 05:57:38 37° NE 06:00:31 10° ESE
EXPRESS MD2 2.3 05:55:52 10° SW 05:58:34 57° SSE 06:00:26 13° ENE
Meteor 1-31 Rocket 3.9 05:56:04 10° SE 05:58:49 20° E 06:01:32 10° NE
IRAS Rocket 4.3 05:53:08 10° SSE 05:58:50 77° ENE 06:04:28 10° N
Cosmos 1782 2.5 06:00:37 10° S 06:04:16 76° E 06:07:54 10° N
Cosmos 2084 3.6 06:00:24 10° SW 06:04:41 73° WNW 06:08:57 10° NNE
PSLV R/B 3.8 06:00:32 10° S 06:04:46 72° WSW 06:08:55 10° NNW
Cosmos 1656 3.7 06:05:04 10° SSW 06:10:30 62° ESE 06:15:29 12° NE
Cosmos 1833 Rocket 2.7 06:06:29 10° N 06:11:59 58° ENE 06:17:33 10° SSE
Cosmos 1606 Rocket 4.4 06:09:34 10° SSE 06:13:32 33° ESE 06:16:32 15° NE
COBE Rocket 3.9 06:11:23 10° NNE 06:16:11 70° ESE 06:21:11 10° S
NOSS 3-4 (A) 4.3 06:09:45 10° NNW 06:18:29 62° ENE 06:26:53 10° SE
NOSS 3-4 (C) 4.3 06:09:50 10° NNW 06:18:32 62° ENE 06:26:55 10° SE
USA 59 Rocket 3.9 06:14:54 10° SSW 06:20:33 16° S 06:25:54 10° SE
Cosmos 1544 Rocket 4.2 06:16:24 10° SSW 06:20:42 55° W 06:24:55 10° N
Cosmos 1980 Rocket 4.3 06:18:23 10° SSE 06:21:00 13° SE 06:23:38 10° ESE
Atlas Centaur 2 3.3 06:25:31 10° NNW 06:30:09 26° NNE 06:33:10 19° ENE
Cosmos 1486 Rocket 4.0 06:26:45 10° SSW 06:32:04 76° ESE 06:36:05 17° NNE
ATLAS 5 CENTAUR R/B 3.8 06:29:44 16° NE 06:33:02 22° ENE 06:38:16 10° ESE
CARTOSAT-1 4.1 06:30:36 10° S 06:34:50 61° WSW 06:39:00 10° NNW
Cosmos 1092 Rocket 4.0 06:29:28 10° N 06:35:32 63° E 06:41:40 10° SSE
SL-8 R/B 4.4 06:32:21 10° WNW 06:37:03 56° SSW 06:41:48 10° SE
Cosmos 1892 Rocket 3.8 06:34:00 16° NNE 06:37:23 49° E 06:41:45 10° SSE
SPOT 5 3.7 06:33:22 10° SE 06:37:36 30° E 06:39:33 23° NE
NOSS 3-2 (C) 3.1 06:35:29 10° SSW 06:41:38 85° WNW 06:44:58 23° NNE
Cosmos 1763 Rocket 3.3 06:40:14 10° NNW 06:45:17 79° ENE 06:50:24 10° SSE
Cosmos 2026 Rocket 4.0 06:40:55 10° N 06:47:12 90° E 06:53:40 10° S
Cosmos 1777 Rocket 4.0 06:43:06 10° SSW 06:48:24 81° ESE 06:51:37 24° NNE
Meteor 2-20 4.5 06:42:32 10° S 06:48:39 66° E 06:52:46 22° NNE
Cosmos 540 Rocket 3.3 06:45:19 10° N 06:50:24 74° ENE 06:55:32 10° SSE
Pegasus R/B 4.1 06:52:01 64° ESE 06:52:01 64° ESE 06:54:26 10° S
USA 281 3.9 06:47:52 10° SE 06:53:36 31° ENE 06:55:41 26° NE
Cosmos 1726 Rocket 3.3 06:52:07 10° S 06:56:15 74° E 06:57:57 34° NNE
Cosmos 2360 4.4 06:50:51 10° SSW 06:56:34 71° WNW 07:00:20 22° N
BREEZE-M DEB (TANK) 4.2 06:45:08 10° SW 06:56:42 57° NW 06:58:49 28° NNE
Cosmos 990 Rocket 4.4 06:52:55 10° S 06:58:00 46° ESE 06:59:58 31° ENE
RESURS DK-1 3.6 07:01:12 24° ESE 07:01:12 24° ESE 07:03:24 10° SE
Terra 3.3 06:56:49 10° SE 06:59:39 19° E 06:59:39 19° E
Hubble Space Telescope 2.7 06:58:50 10° NW 07:00:00 15° NNW 07:00:00 15° NNW
Lacrosse 4 Rocket 3.8 07:00:23 10° WSW 07:03:10 17° WNW 07:05:58 10° NNW
IRIDIUM 104 4.4 07:00:08 13° N 07:04:49 77° W 07:10:09 10° S
Cosmos 1346 Rocket 2.9 07:03:11 20° NNW 07:05:37 67° W 07:09:20 10° S
Cosmos 1461 4.4 07:03:35 10° S 07:06:09 18° SE 07:06:27 18° ESE
CSL-04 Rocket 3.5 07:04:11 10° SSE 07:09:31 70° ENE 07:12:41 25° N
Cosmos 2082 Rocket 2.7 07:10:21 35° ENE 07:11:07 37° ENE 07:16:20 10° SE
PAYLOAD B 4.4 07:08:36 10° SSE 07:14:11 55° E 07:16:19 35° NNE
Cosmos 1697 Rocket 2.7 07:09:26 10° SSW 07:15:09 75° ESE 07:17:17 40° NE
Meteor 2-20 Rocket 4.4 07:09:14 10° S 07:15:25 76° E 07:18:29 32° NNE
Feng Yun 1-1 Rocket 4.4 07:12:08 10° SSE 07:17:59 59° E 07:20:28 34° NNE
Meteor 1-26 Rocket 4.5 07:12:07 10° S 07:18:11 62° E 07:20:22 39° NE
Cosmos 841 Rocket 3.9 07:21:32 40° ENE 07:21:33 40° ENE 07:26:24 10° SSE
Helios 1A 3.2 07:20:30 40° NNW 07:21:45 60° W 07:25:49 10° SSW
CZ-4 R/B 1.6 07:19:18 10° S 07:22:59 61° WSW 07:24:17 36° NW
Gbstr 26 Del rocket 3.1 07:17:47 10° SW 07:23:00 74° NW 07:23:52 56° NNE
Cosmos 1354 Rocket 4.0 07:18:45 10° SSW 07:24:07 82° WNW 07:25:58 42° N
Intercosmos 25 4.0 07:20:04 10° S 07:25:57 51° ESE 07:26:28 49° E
Cosmos 2221 4.4 07:24:10 10° SSE 07:26:19 17° ESE 07:26:19 17° ESE
Lacrosse 5 rocket 3.4 07:27:05 10° W 07:29:25 15° WNW 07:30:09 15° NW
Aureole 1 Rocket 3.8 07:26:42 10° S 07:31:04 36° ESE 07:31:04 36° ESE
Resurs 01 Rocket 4.2 07:27:56 10° SSW 07:31:13 21° WSW 07:34:29 10° WNW
Cosmos 468 Rocket 4.1 07:28:23 18° NNW 07:32:14 73° WSW 07:37:24 10° SSE
USA 238 DEB 3.5 07:26:49 10° SSW 07:33:22 70° SE 07:35:12 46° ENE
Exosat Rocket 4.1 07:31:38 41° NNE 07:33:24 53° ENE 07:38:43 10° SSE
USA 238 3.5 07:26:55 10° SSW 07:33:28 69° SE 07:35:18 46° ENE
SL-24 R/B 4.2 07:32:37 54° N 07:33:33 75° WNW 07:37:51 10° SSW
COSMOS 2406 4.3 07:35:09 28° E 07:35:09 28° E 07:38:54 10° SE
Cosmos 489 Rocket 4.3 07:30:51 30° N 07:34:08 76° ENE 07:40:25 10° SSE
MOS 1 4.3 07:29:21 10° SSE 07:35:04 61° ENE 07:36:16 50° NNE
SEDSat Delta rocket 4.3 07:29:09 10° WNW 07:34:51 40° N 07:34:51 40° N
Cosmos 2266 Rocket 4.0 07:34:46 47° NE 07:36:05 56° E 07:42:03 10° SSE
Okean-O 3.8 07:39:12 10° SSE 07:42:00 30° ESE 07:42:00 30° ESE
MOS 1-B 4.4 07:46:34 10° SSE 07:52:19 55° E 07:52:28 55° ENE
USA 215 3.1 07:46:49 10° SE 07:53:26 72° NE 07:59:58 10° NW
Cosmos 1758 Rocket 3.6 07:54:19 74° S 07:54:19 74° S 07:58:18 10° S
BREEZE M DEB (TANK) 2.9 07:57:26 51° W 07:58:11 68° SSW 08:06:02 10° SE
CZ-4B R/B 3.2 07:52:55 10° S 07:58:20 76° WSW 07:59:43 50° NW
ADEOS 4.0 07:54:10 10° S 07:59:21 60° WSW 08:01:20 36° NW
Meteor 2-6 Rocket 4.0 07:58:12 10° S 08:03:53 80° E 08:04:12 76° ENE
Cosmos-2242 3.9 08:00:01 10° SSW 08:03:58 42° W 08:03:58 42° W
Cosmos 1980 Rocket 2.0 08:00:05 10° SSW 08:05:50 87° ESE 08:06:15 77° NE
S3M 3.9 08:00:47 10° S 08:07:01 72° E 08:07:41 66° NE
Cosmos 2058 Rocket 4.4 08:07:20 10° SSW 08:11:14 31° W 08:11:38 31° WNW
Cosmos 1655 Rocket 4.1 08:11:17 57° E 08:11:19 57° E 08:17:27 10° SSE
USA 59 Rocket 3.1 08:05:04 10° SSW 08:13:41 32° SE 08:18:30 19° E
ATLAS 5 CENTAUR R/B 2.8 08:08:54 14° NW 08:15:12 75° SW 08:22:17 10° SSE
Okean O Rocket 2.1 08:10:58 10° S 08:14:34 57° S 08:14:34 57° S
ERS-1 Rocket 3.4 08:12:14 10° S 08:17:13 58° WSW 08:17:53 53° WNW
Atlas Centaur 2 3.6 08:12:05 10° WNW 08:15:10 29° NW 08:15:10 29° NW
IRS-1A Rocket 4.2 08:12:53 10° SSE 08:18:46 90° WSW 08:19:05 81° NNW
Cosmos 1898 Rocket 3.5 08:15:32 10° SSW 08:20:36 80° SSW 08:20:36 80° SSW
CZ-2C R/B 4.5 08:29:27 47° S 08:29:27 47° S 08:32:43 10° S
Cosmos 967 Rocket 4.4 08:29:32 10° SSW 08:35:48 69° ESE 08:35:53 69° ESE
Terra 2.9 08:33:31 10° S 08:37:55 38° WSW 08:38:17 37° W
USA 281 4.0 08:31:54 10° S 08:38:10 47° WSW 08:42:32 20° NW
Cosmos 2315 Rocket 3.9 08:32:12 10° S 08:38:30 84° W 08:38:37 84° WNW
Cosmos 2360 Rocket 4.1 08:34:50 10° S 08:38:40 18° SE 08:39:19 18° ESE
Meteor 1-19 Rocket 4.3 08:33:56 10° S 08:39:41 80° SSE 08:39:41 80° SSE
Ariane Rocket 4.1 08:35:38 10° SSE 08:38:51 35° SE 08:38:51 35° SE
Cosmos 2333 Rocket 3.6 08:38:02 10° S 08:42:52 27° ESE 08:42:52 27° ESE
COSMOS 2455 3.3 08:37:33 10° SSW 08:43:19 50° SE 08:43:19 50° SE
Cosmos 2322 Rocket 3.9 08:39:13 10° S 08:43:32 22° SE 08:43:47 22° ESE
CZ-4B R/B 4.2 08:48:29 10° S 08:53:21 49° WSW 08:53:21 49° WSW
SL-16 R/B 3.0 08:48:37 10° S 08:53:30 44° SE 08:53:30 44° SE
Meteor 1-25 Rocket 4.4 08:55:31 70° SSW 08:55:31 70° SSW 09:00:46 10° S
Cosmos 2082 Rocket 3.8 08:52:03 18° WNW 08:55:11 30° WSW 09:00:12 10° S
Cosmos 2369 4.2 08:52:07 10° SSW 08:56:53 55° WSW 08:56:53 55° WSW
Cosmos 2278 4.4 08:59:57 10° SSW 09:04:43 47° SE 09:04:43 47° SE
Meteor 1-27 Rocket 4.1 09:03:57 10° S 09:08:24 58° S 09:08:24 58° S
Cosmos 2219 Rocket 4.0 09:10:03 10° S 09:14:09 20° SE 09:14:28 20° ESE
COSMOS 2406 4.4 09:17:06 34° W 09:18:03 36° WSW 09:23:22 10° S
CZ-2C R/B 4.5 09:25:42 31° SE 09:25:42 31° SE 09:29:28 10° S
Nadezhda 1 Rocket 4.3 09:51:35 10° S 09:56:47 63° SSW 09:56:47 63° SSW
USA 59 Rocket 1.5 09:54:42 10° SW 10:04:11 81° WNW 10:04:11 81° WNW
USA 267 3.3 10:08:02 72° SW 10:08:02 72° SW 10:13:53 10° SW
NOSS 3-1 (C) 4.4 10:09:06 10° SW 10:12:56 37° SW 10:12:56 37° SW
SeaSat 1 4.0 10:22:27 30° SW 10:22:27 30° SW 10:24:55 10° SSW
Cosmos 2360 Rocket 3.3 10:17:30 10° SSW 10:21:03 38° SW 10:21:03 38° SW
ATLAS 2AS CENTAUR R/B 3.2 10:24:58 52° ESE 10:24:58 52° ESE 10:30:47 10° SE
Cosmos 2333 Rocket 3.7 10:21:56 10° SW 10:24:52 27° WSW 10:24:52 27° WSW
Cosmos 2322 Rocket 3.5 10:22:23 10° SSW 10:25:34 32° SW 10:25:34 32° SW
SL-16 R/B 4.3 10:33:27 10° SW 10:35:20 17° WSW 10:35:20 17° WSW
IDEFIX/ARIANE 42P 3.8 10:43:44 37° SE 10:43:44 37° SE 10:47:46 10° S
Cosmos 2219 Rocket 3.4 10:52:56 10° SSW 10:56:08 33° SW 10:56:08 33° SW
CZ-2C R/B 4.5 10:58:29 10° SE 11:01:49 21° E 11:01:49 21° E
NOSS 3-1 (A) 4.3 10:57:44 10° SW 11:01:31 36° SW 11:01:31 36° SW
Cosmos 2154 Rocket 4.2 11:06:48 68° ESE 11:06:48 68° ESE 11:12:34 10° S
FENGYUN 3A 4.5 11:07:38 45° ESE 11:07:38 45° ESE 11:12:35 10° S
ALOS 2 4.4 11:05:25 10° S 11:07:44 29° S 11:07:44 29° S
Cosmos 2181 Rocket 4.2 11:07:19 10° S 11:12:59 65° SW 11:12:59 65° SW
Cosmos 2263 Rocket 4.4 11:17:49 14° E 11:18:10 14° E 11:20:52 10° ESE
NPP 4.1 11:19:51 59° SSE 11:19:51 59° SSE 11:24:22 10° S
ADEOS II 4.1 11:21:43 17° E 11:23:51 22° ESE 11:27:51 10° SSE
ALOS 4.3 11:27:26 20° E 11:28:20 21° ESE 11:31:48 10° SSE
COSMOS 2428 3.1 11:28:23 10° SSW 11:33:01 59° SSW 11:33:01 59° SSW
Cosmos 2322 4.3 11:30:01 10° SSW 11:34:16 49° SW 11:34:16 49° SW
CZ-2D R/B 3.0 11:37:09 39° E 11:37:55 41° ESE 11:42:56 10° S
MSX 4.3 11:39:59 51° SW 11:39:59 51° SW 11:44:37 10° SSW
Cosmos 2297 Rocket 2.3 11:39:57 70° S 11:39:57 70° S 11:45:02 10° SSE
Meteor 1-21 4.3 11:33:54 10° S 11:39:05 73° S 11:39:05 73° S
H-2A R/B 3.8 11:45:33 26° ESE 11:45:54 26° ESE 11:49:26 10° SSE
Meteor 2-10 Rocket 4.2 11:48:59 46° E 11:48:59 46° E 11:53:53 10° SSE
USA 59 Rocket 3.4 11:47:15 10° WSW 11:49:51 14° W 11:49:51 14° W
Resurs 1-4 Rocket 2.4 11:51:47 61° E 11:52:04 62° ESE 11:57:23 10° S
NOAA 11 4.5 11:51:32 57° E 11:52:05 60° ESE 11:57:29 10° S
Cosmos 1610 Rocket 4.4 11:53:07 69° WSW 11:53:07 69° WSW 11:59:13 10° S
